9W213 VABB-VOBL

Flight info

Callsign 9W213
Flight time N/A
Altitude 39000
Route VEVAK2A EPKOS DCT KP DCT BBM DCT IDSIB DCT GUNIM GUNIM7E
Aircraft B777/H-V/N

Departure

Time 2026-04-30 18:00
Airport Chhatrapati Shivaji Maharaj International Airport (VABB)

Arrival

Time N/A
Airport Kempegowda International Airport Bengaluru (VOBL)
Time Latitude Longitude Altitude Speed Heading
2026-04-30 17:39 19.09321 72.87156 51 ft 0 kts
2026-04-30 17:50 19.09260 72.87155 51 ft 2 kts
2026-04-30 17:51 19.09241 72.87152 51 ft 2 kts 296°
2026-04-30 17:52 19.09236 72.87196 51 ft 2 kts 270°
2026-04-30 17:53 19.09236 72.87200 51 ft 0 kts 270°
2026-04-30 17:55 19.09059 72.87328 51 ft 21 kts 101°
2026-04-30 17:56 19.09051 72.87756 51 ft 3 kts 91°
2026-04-30 17:57 19.09054 72.87889 51 ft 23 kts 87°
2026-04-30 17:58 19.08886 72.87977 51 ft 11 kts 263°
2026-04-30 17:59 19.08883 72.87915 51 ft 10 kts 268°
2026-04-30 18:00 19.08854 72.85887 67 ft 178 kts 269°
2026-04-30 18:00 19.08357 72.81473 3615 ft 205 kts 263°
2026-04-30 18:01 19.08033 72.78211 5211 ft 235 kts 266°
2026-04-30 18:02 19.09556 72.73164 7899 ft 276 kts 317°
2026-04-30 18:02 19.15248 72.72582 8884 ft 295 kts
2026-04-30 18:03 19.20271 72.69809 8878 ft 286 kts 294°
2026-04-30 18:04 19.19146 72.64124 8921 ft 277 kts 232°
2026-04-30 18:05 19.13161 72.59174 8894 ft 285 kts 190°
2026-04-30 18:06 19.05474 72.61828 8894 ft 298 kts 160°
2026-04-30 18:07 18.97871 72.65251 8897 ft 296 kts 160°
2026-04-30 18:08 18.92195 72.67798 8926 ft 294 kts 160°
2026-04-30 18:09 18.84172 72.71394 11061 ft 354 kts 160°
2026-04-30 18:10 18.74743 72.75454 13268 ft 376 kts 162°
2026-04-30 18:11 18.64391 72.78947 16239 ft 405 kts 163°
2026-04-30 18:11 18.56233 72.81748 18720 ft 421 kts 162°
2026-04-30 18:12 18.48262 72.84507 20782 ft 439 kts 162°
2026-04-30 18:13 18.45831 72.85349 21366 ft 444 kts 162°
2026-04-30 18:13 18.43325 72.86220 22052 ft 447 kts 162°
2026-04-30 18:15 18.37356 72.88296 23375 ft 458 kts 162°
2026-04-30 18:15 18.28153 72.91484 25230 ft 473 kts 162°
2026-04-30 18:16 18.27276 72.91787 25398 ft 474 kts 162°
2026-04-30 18:17 18.26306 72.92123 25603 ft 475 kts 162°
2026-04-30 18:17 18.23155 72.93211 26117 ft 479 kts 162°
2026-04-30 18:17 18.16787 72.95410 27044 ft 489 kts 162°
2026-04-30 18:18 18.13563 72.96572 27267 ft 489 kts 159°
2026-04-30 18:18 18.10540 72.98130 27275 ft 480 kts 149°
2026-04-30 18:18 18.07837 73.00128 27293 ft 470 kts 140°
2026-04-30 18:18 18.05405 73.02369 27300 ft 461 kts 135°
2026-04-30 18:19 18.03191 73.04751 27309 ft 452 kts 131°
2026-04-30 18:19 18.01153 73.07173 27313 ft 445 kts 129°
2026-04-30 18:19 17.99153 73.09672 27315 ft 440 kts 128°
2026-04-30 18:19 17.97143 73.12189 27382 ft 455 kts 129°
2026-04-30 18:20 17.95072 73.14755 27459 ft 469 kts 129°
2026-04-30 18:20 17.92917 73.17403 27576 ft 481 kts 129°
2026-04-30 18:20 17.90714 73.20089 27809 ft 490 kts 129°
2026-04-30 18:20 17.88471 73.22823 28131 ft 496 kts 129°
2026-04-30 18:21 17.86213 73.25575 28516 ft 500 kts 129°
2026-04-30 18:21 17.83930 73.28359 28923 ft 504 kts 129°
2026-04-30 18:21 17.81631 73.31161 29309 ft 508 kts 129°
2026-04-30 18:21 17.79319 73.33978 29678 ft 511 kts 129°
2026-04-30 18:22 17.77023 73.36775 30029 ft 515 kts 130°
2026-04-30 18:22 17.72322 73.42498 30825 ft 519 kts 129°
2026-04-30 18:22 17.69946 73.45389 31186 ft 522 kts 129°
2026-04-30 18:23 17.67574 73.48273 31536 ft 524 kts 129°
2026-04-30 18:23 17.65199 73.51161 31962 ft 523 kts 129°
2026-04-30 18:23 17.62824 73.54045 32530 ft 520 kts 129°
2026-04-30 18:23 17.60491 73.56884 33033 ft 518 kts 129°
2026-04-30 18:24 17.55779 73.62618 33990 ft 514 kts 129°
2026-04-30 18:24 17.53467 73.65420 34408 ft 513 kts 129°
2026-04-30 18:24 17.51888 73.67332 34715 ft 512 kts 129°
2026-04-30 18:25 17.48806 73.71064 35295 ft 510 kts 129°
2026-04-30 18:25 17.44188 73.76652 36167 ft 506 kts 129°
2026-04-30 18:25 17.42622 73.78535 36414 ft 505 kts 130°
2026-04-30 18:26 17.37369 73.83397 37136 ft 506 kts 146°
2026-04-30 18:26 17.34362 73.85298 37482 ft 505 kts 150°
2026-04-30 18:26 17.30244 73.87597 37960 ft 504 kts 152°
2026-04-30 18:27 17.25104 73.90490 38635 ft 499 kts 150°
2026-04-30 18:27 17.22111 73.92234 38907 ft 500 kts 150°
2026-04-30 18:28 17.15973 73.95854 38932 ft 512 kts 149°
2026-04-30 18:28 17.06538 74.01437 38934 ft 527 kts 149°
2026-04-30 18:29 16.93579 74.09070 38944 ft 541 kts 150°
2026-04-30 18:30 16.87029 74.12979 39088 ft 539 kts 149°
2026-04-30 18:30 16.81115 74.17188 39427 ft 501 kts 144°
2026-04-30 18:31 16.78313 74.19261 39169 ft 495 kts 144°
2026-04-30 18:31 16.72624 74.23304 38969 ft 489 kts 144°
2026-04-30 18:32 16.63927 74.28924 38966 ft 492 kts 155°
2026-04-30 18:33 16.54439 74.32942 38965 ft 493 kts 160°
2026-04-30 18:33 16.44920 74.36835 38965 ft 494 kts 157°
2026-04-30 18:34 16.35364 74.40876 38964 ft 494 kts 157°
2026-04-30 18:35 16.28990 74.43585 38965 ft 494 kts 157°
2026-04-30 18:35 16.22624 74.46285 38964 ft 494 kts 157°
2026-04-30 18:36 16.13067 74.50337 38968 ft 495 kts 157°
2026-04-30 18:37 16.03485 74.54391 38974 ft 496 kts 157°
2026-04-30 18:37 15.97109 74.57084 38984 ft 496 kts 157°
2026-04-30 18:38 15.90687 74.59795 38987 ft 497 kts 156°
2026-04-30 18:38 15.84293 74.62527 38988 ft 496 kts 155°
2026-04-30 18:39 15.78102 74.65680 38986 ft 496 kts 151°
2026-04-30 18:39 15.71997 74.68996 38986 ft 496 kts 151°
2026-04-30 18:40 15.65845 74.72253 38987 ft 495 kts 152°
2026-04-30 18:40 15.59698 74.75471 38975 ft 495 kts 152°
2026-04-30 18:41 15.53539 74.78688 38964 ft 495 kts 152°
2026-04-30 18:41 15.47395 74.81900 38961 ft 495 kts 152°
2026-04-30 18:42 15.41282 74.85088 38948 ft 494 kts 152°
2026-04-30 18:42 15.32078 74.89882 38953 ft 493 kts 152°
2026-04-30 18:45 14.98373 75.07398 38935 ft 492 kts 153°
2026-04-30 18:46 14.92227 75.10582 38935 ft 493 kts 153°
2026-04-30 18:46 14.86084 75.13764 38935 ft 492 kts 153°
2026-04-30 18:47 14.79995 75.16916 38935 ft 493 kts 153°
2026-04-30 18:47 14.73857 75.20076 38935 ft 492 kts 153°
2026-04-30 18:48 14.67723 75.23232 38935 ft 492 kts 153°
2026-04-30 18:48 14.61614 75.26374 38935 ft 491 kts 153°
2026-04-30 18:49 14.55502 75.29517 38944 ft 490 kts 153°
2026-04-30 18:49 14.49402 75.32653 38944 ft 490 kts 153°
2026-04-30 18:50 14.43309 75.35792 38940 ft 489 kts 153°
2026-04-30 18:50 14.37223 75.38921 38956 ft 487 kts 153°
2026-04-30 18:51 14.31187 75.42026 38959 ft 483 kts 153°
2026-04-30 18:51 14.25195 75.45099 38956 ft 482 kts 153°
2026-04-30 18:52 14.19185 75.48178 39000 ft 482 kts 153°
2026-04-30 18:52 14.13204 75.51242 38999 ft 484 kts 153°
2026-04-30 18:53 14.07676 75.55112 38999 ft 482 kts 134°
2026-04-30 18:53 14.05624 75.57806 39013 ft 480 kts 120°
2026-04-30 18:53 14.04131 75.60824 39025 ft 479 kts 114°
2026-04-30 18:54 14.01363 75.67099 39020 ft 479 kts 114°
2026-04-30 18:54 13.98346 75.73208 39044 ft 479 kts 117°
2026-04-30 18:55 13.95166 75.79207 39041 ft 480 kts 117°
2026-04-30 18:55 13.90399 75.88292 39042 ft 480 kts 117°
2026-04-30 18:56 13.85629 75.97353 39052 ft 480 kts 117°
2026-04-30 18:57 13.80835 76.06444 39053 ft 482 kts 117°
2026-04-30 18:57 13.77661 76.12465 39051 ft 481 kts 117°
2026-04-30 18:58 13.72877 76.21533 39053 ft 481 kts 117°
2026-04-30 18:59 13.68087 76.30606 39053 ft 481 kts 117°
2026-04-30 19:00 13.61691 76.42717 39053 ft 482 kts 117°
2026-04-30 19:01 13.55333 76.54788 39053 ft 482 kts 117°
2026-04-30 19:02 13.50510 76.63890 39053 ft 482 kts 117°
2026-04-30 19:02 13.47304 76.69936 38940 ft 480 kts 117°
2026-04-30 19:03 13.44091 76.75992 37786 ft 483 kts 117°
2026-04-30 19:03 13.40866 76.82061 36584 ft 483 kts 118°
2026-04-30 19:04 13.37650 76.88110 35385 ft 484 kts 118°
2026-04-30 19:04 13.34411 76.94199 34179 ft 484 kts 119°
2026-04-30 19:05 13.31215 77.00229 32986 ft 484 kts 119°
2026-04-30 19:05 13.27984 77.06323 31778 ft 482 kts 119°
2026-04-30 19:06 13.24785 77.12327 30581 ft 480 kts 120°
2026-04-30 19:06 13.23165 77.15364 29974 ft 479 kts 120°
2026-04-30 19:06 13.19977 77.21338 28772 ft 475 kts 120°
2026-04-30 19:07 13.16822 77.27255 27571 ft 470 kts 120°
2026-04-30 19:07 13.15553 77.30324 26959 ft 468 kts 107°
2026-04-30 19:08 13.15562 77.36905 25762 ft 464 kts 76°
2026-04-30 19:08 13.17759 77.43080 24564 ft 459 kts 66°
2026-04-30 19:08 13.19035 77.46014 23972 ft 456 kts 65°
2026-04-30 19:09 13.21749 77.51883 22767 ft 451 kts 64°
2026-04-30 19:09 13.23207 77.54695 22165 ft 446 kts 57°
2026-04-30 19:09 13.25038 77.57237 21567 ft 442 kts 49°
2026-04-30 19:10 13.28471 77.61164 20547 ft 436 kts 46°
2026-04-30 19:10 13.32540 77.65648 19355 ft 429 kts 46°
2026-04-30 19:11 13.34608 77.67896 18746 ft 425 kts 46°
2026-04-30 19:11 13.38746 77.72097 17548 ft 416 kts 38°
2026-04-30 19:11 13.41149 77.73710 16950 ft 412 kts 28°
2026-04-30 19:12 13.43804 77.74894 16345 ft 409 kts 20°
2026-04-30 19:12 13.46468 77.75731 15752 ft 404 kts 13°
2026-04-30 19:12 13.49256 77.76093 15149 ft 401 kts
2026-04-30 19:13 13.54701 77.75245 13950 ft 396 kts 342°
2026-04-30 19:13 13.59338 77.72527 12774 ft 393 kts 321°
2026-04-30 19:13 13.61243 77.70532 12174 ft 392 kts 311°
2026-04-30 19:14 13.62754 77.68200 11572 ft 391 kts 300°
2026-04-30 19:14 13.63811 77.65624 10969 ft 390 kts 289°
2026-04-30 19:14 13.64376 77.62912 10371 ft 390 kts 278°
2026-04-30 19:14 13.64436 77.60132 9769 ft 389 kts 267°
2026-04-30 19:15 13.63987 77.57433 9175 ft 388 kts 256°
2026-04-30 19:15 13.61620 77.52490 7970 ft 385 kts 234°
2026-04-30 19:15 13.59976 77.50356 7400 ft 382 kts 231°
2026-04-30 19:16 13.58307 77.48298 7263 ft 367 kts 231°
2026-04-30 19:16 13.56701 77.46330 7173 ft 351 kts 231°
2026-04-30 19:16 13.53689 77.42649 7066 ft 322 kts 231°
2026-04-30 19:17 13.52274 77.40918 7014 ft 309 kts 231°
2026-04-30 19:17 13.49635 77.37697 6982 ft 281 kts 231°
2026-04-30 19:17 13.48410 77.36206 6991 ft 267 kts 231°
2026-04-30 19:18 13.46487 77.33871 6990 ft 246 kts 231°
2026-04-30 19:18 13.45057 77.32147 6991 ft 228 kts 231°
2026-04-30 19:18 13.44053 77.30943 7011 ft 219 kts 231°
2026-04-30 19:19 13.43023 77.29821 6989 ft 214 kts 226°
2026-04-30 19:19 13.41919 77.28814 6995 ft 210 kts 223°
2026-04-30 19:19 13.39723 77.26808 7003 ft 216 kts 223°
2026-04-30 19:20 13.38542 77.25846 6979 ft 219 kts 214°
2026-04-30 19:20 13.37115 77.25311 7024 ft 216 kts 199°
2026-04-30 19:20 13.34308 77.24394 7049 ft 208 kts 198°
2026-04-30 19:21 13.32918 77.23944 7019 ft 208 kts 198°
2026-04-30 19:21 13.30134 77.23051 6554 ft 212 kts 198°
2026-04-30 19:22 13.27289 77.22297 6047 ft 208 kts 184°
2026-04-30 19:22 13.24916 77.25220 6090 ft 190 kts 91°
2026-04-30 19:23 13.24055 77.28911 6046 ft 205 kts 107°
2026-04-30 19:24 13.23135 77.31754 6018 ft 212 kts 107°
2026-04-30 19:24 13.22675 77.33171 6000 ft 205 kts 107°
2026-04-30 19:24 13.21866 77.35669 5958 ft 161 kts 107°
2026-04-30 19:25 13.20843 77.38820 6009 ft 155 kts 107°
2026-04-30 19:26 13.20161 77.40924 5998 ft 156 kts 107°
2026-04-30 19:26 13.19476 77.43035 6002 ft 156 kts 107°
2026-04-30 19:26 13.19232 77.44123 5996 ft 156 kts 99°
2026-04-30 19:27 13.19124 77.46325 6006 ft 155 kts 89°
2026-04-30 19:27 13.19128 77.48535 5998 ft 155 kts 88°
2026-04-30 19:28 13.19122 77.49640 5968 ft 158 kts 88°
2026-04-30 19:28 13.19121 77.51903 5675 ft 158 kts 88°
2026-04-30 19:29 13.19161 77.54175 5141 ft 160 kts 87°
2026-04-30 19:29 13.19203 77.55299 4894 ft 148 kts 86°
2026-04-30 19:30 13.19474 77.58490 4396 ft 150 kts 83°
2026-04-30 19:30 13.19412 77.60644 4044 ft 152 kts 96°
2026-04-30 19:31 13.19207 77.62754 4222 ft 147 kts 92°
2026-04-30 19:31 13.19211 77.63856 4495 ft 159 kts 90°
2026-04-30 19:31 13.19013 77.66120 4627 ft 160 kts 96°
2026-04-30 19:32 13.18844 77.67277 4252 ft 163 kts 98°
2026-04-30 19:32 13.18683 77.68386 4052 ft 155 kts 95°
2026-04-30 19:32 13.18789 77.69471 3931 ft 152 kts 83°
2026-04-30 19:32 13.19325 77.70425 3663 ft 158 kts 52°